COSMOS 1275 DEB, 42188

Orbit data source: Space-Track

COSMOS 1275 DEB, 42188 is space debris in LEO originally from a launch on Thu, 04 Jun 1981 UTC launched from the Plesetsk Missile And Space Complex (PKMTR). Debris objects in space refer to the collection of defunct objects orbiting the Earth. Examples of debris include non-operational satellites, rocket bodies, and fragments generated from explosions, collisions, or faulty payload assembly.

Loading next visibility...
Identifier
42188, 1981-053TC
Orbit
LEO
Country
Flag of CISCIS
Related business
Manufacturer
Unknown
Mission
Spacecraft
Bus & Motor
Unknown
Mass
Unknown
Launch date (UTC)
1981-06-04 (45 years ago)
Launch vehicle
Unknown
Launch site
Plesetsk Missile And Space Complex (PKMTR)
Object type
Payload
Rocket body
Debris
Shape & HBR
Unknown shape, 0.1 m
Radar Cross Section
Small (<0.1 m²)

Expand to show TLE details & history
Last TLE update: 22 hours ago

TLE from 22 hours ago
0 COSMOS 1275 DEB
1 42188U 81053TC  26144.97558719  .00001924  00000-0  95228-3 0  9993
2 42188  82.8477 145.3523 0049982 179.0005 181.1283 14.16221791641287
Epoch: 2026-05-24T23:24Z
TLE epoch observation values (Epoch: 2026-05-24T23:24:50.733Z)
Latitude
-0.00004°
Longitude
-88.42911°
Altitude
877.182 km
Speed
7.395 km/s
True Right ascension
09h 41m 24s
True Declination
0° 00' 00"
Sunlit
Object was in daylight at epoch
Visualization orbit readout
Latitude
Unknown
Longitude
Unknown
Altitude
Unknown
Speed
Unknown
Apparent Right ascension
Unknown
Apparent Declination
Unknown
Sunlit
N/A
Visualization observer readout
Local Sidereal Time
06:27:45
Azimuth
Unknown
Elevation
Unknown
Doppler factor
Unknown
Orbital elements
Apogee altitude
871.308 km
Perigee altitude
799.2 km
Semi-major axis
7,213.391 km
Eccentricity
0.005
Inclination
82.8477°
RAAN
145.3523°
Arg. of periapsis
179.0005°
True anomaly
181.11709°
Mean anomaly
181.1283°
Eccentric anomaly
181.12269°
Mean motion
3.5427 °/min
Orbital period
101.62 mins
BSTAR
0.00095228
Loading maneuver chart data...
Computing Atmospheric mass density...
Loading historical data...
Loading historical data...
Loading historical data...
Loading historical data...
Loading historical data...
Loading historical data...
Loading historical data...

Documentation

Showing up to 5 results
|